Flag for Russia Weather past 2 weeks in Yekaterinburg, Russia

Now
32 °F

Clear.


Feels Like: 22 °F
Forecast: 11 / 24 °F
Wind: 15 mph from West

Location: Ekaterinburg

Current Time: Feb 27, 2015 at 5:40:00 AM

Latest Report: Feb 27, 2015 at 5:00 AM


Visibility: 10 mi

Pressure: 30.48 "Hg

Humidity: 64%

Dew point: 21 °F

Location of YekaterinburgLocation

Historic Weather in Yekaterinburg — Graph

°F

Yekaterinburg temperature yesterday

Maximum temperature yesterday: 41 °F (at 3:30 PM)
Minimum temperature yesterday: 21 °F (at 4:30 AM)
Average temperature yesterday: 31 °F

Past Weeks' High & Low Weather Summary

 TemperatureHumidityPressure
High41 °F (Feb 26, 3:30 PM)100% (Feb 15, 4:00 AM)30.54 "Hg (Feb 15, 4:00 AM)
Low-17 °F (Feb 17, 8:30 AM)38% (Feb 19, 12:30 PM)29.53 "Hg (Feb 12, 4:00 AM)
Average20 °F79%30.06 "Hg
* Reported Feb 12 4:00 AM — Feb 27 4:30 AM, Yekaterinburg, Weather by CustomWeather, © 2015

Note: Actual official high and low records may vary slightly from our data, if they occured in-between our weather recording intervals... More about our weather records

Advertising

Yekaterinburg weather history for previous 24 hours

 ConditionsComfort  
Time TempWeatherWind HumidityBarometerVisibility
4:30 AM
Fri, Feb 27
32 °FClear.13 mph64%30.51 "Hg10 mi
4:00 AM32 °FClear.10 mph60%30.51 "Hg10 mi
3:30 AM34 °FClear.13 mph56%30.51 "Hg10 mi
3:00 AM34 °FClear.13 mph56%30.51 "Hg10 mi
2:30 AM34 °FClear.13 mph60%30.51 "Hg10 mi
2:00 AM34 °FClear.15 mph60%30.51 "Hg10 mi
1:30 AM34 °FClear.13 mph60%30.51 "Hg10 mi
1:00 AM32 °FClear.8 mph60%30.51 "Hg10 mi
12:30 AM32 °FClear.1 mph60%30.51 "Hg10 mi
12:00 AM32 °FClear.1 mph60%30.51 "Hg10 mi
11:30 PM
Thu, Feb 26
34 °FClear.6 mph60%30.51 "Hg10 mi
11:00 PM34 °FClear.8 mph60%30.51 "Hg10 mi
10:30 PM34 °FClear.10 mph60%30.51 "Hg10 mi
10:00 PM32 °FClear.8 mph64%30.51 "Hg10 mi
9:30 PM34 °FClear.8 mph60%30.51 "Hg10 mi
9:00 PM32 °FClear.6 mph64%30.54 "Hg10 mi
8:30 PM34 °FClear.6 mph65%30.54 "Hg10 mi
8:00 PM34 °FClear.10 mph65%30.54 "Hg10 mi
7:30 PM34 °FClear.8 mph65%30.54 "Hg10 mi
7:00 PM36 °FSunny.13 mph65%30.51 "Hg10 mi
6:30 PM37 °FSunny.8 mph65%30.51 "Hg10 mi
6:00 PM39 °FSunny.10 mph61%30.51 "Hg10 mi
5:30 PM39 °FSunny.13 mph65%30.51 "Hg10 mi
5:00 PM41 °FSunny.13 mph66%30.51 "Hg10 mi
4:30 PM41 °FSunny.10 mph70%30.51 "Hg10 mi
4:00 PM41 °FSunny.13 mph70%30.51 "Hg10 mi
3:30 PM41 °FSunny.15 mph66%30.51 "Hg10 mi
3:00 PM39 °FSunny.10 mph65%30.51 "Hg10 mi
2:30 PM39 °FSunny.10 mph65%30.51 "Hg10 mi
2:00 PM37 °FSunny.13 mph65%30.51 "Hg10 mi
1:30 PM37 °FSunny.13 mph65%30.51 "Hg10 mi
1:00 PM36 °FSunny.10 mph70%30.51 "Hg10 mi
12:30 PM34 °FSunny.13 mph70%30.51 "Hg10 mi
12:00 PM34 °FSunny.10 mph70%30.51 "Hg10 mi
11:00 AM30 °FSunny.13 mph75%30.51 "Hg10 mi
10:30 AM28 °FSunny.10 mph80%30.51 "Hg10 mi
10:00 AM28 °FSunny.10 mph80%30.51 "Hg10 mi
9:30 AM27 °FSunny.13 mph86%30.51 "Hg10 mi
9:00 AM25 °FSunny.10 mph80%30.51 "Hg10 mi
8:30 AM23 °FClear.10 mph86%30.51 "Hg10 mi
8:00 AM23 °FClear.6 mph86%30.48 "Hg10 mi
7:30 AM23 °FClear.6 mph86%30.48 "Hg10 mi
7:00 AM23 °FClear.8 mph80%30.48 "Hg10 mi
6:30 AM23 °FClear.6 mph86%30.48 "Hg10 mi
6:00 AM21 °FClear.6 mph86%30.48 "Hg10 mi
5:30 AM21 °FClear.10 mph86%30.48 "Hg10 mi
5:00 AM23 °FClear.6 mph93%30.48 "Hg10 mi
Weather by CustomWeather, © 2015

See weather overviewHow to use our weather pages